Weather History for Ord, NE

Change the Weather History Date:

Monday, April 8, 2013

  Actual Average Record
Temperature  
Mean Temperature 58 °F 46 °F  
Max Temperature 77 °F 59 °F 77 °F (2013)
Min Temperature 38 °F 33 °F 12 °F (2003)
Degree Days  
Heating Degree Days 7    
Month to date heating degree days 142  
Cooling Degree Days 0    
Month to date cooling degree days 0  
Year to date cooling degree days 0  
Growing Degree Days 7 (Base 50)    
Moisture  
Dew Point 43 °F    
Average Humidity 62    
Maximum Humidity 100    
Minimum Humidity 23    
Precipitation  
Precipitation 0.23 in 0.08 in 0.80 in (1906)
Month to date precipitation 0.29 0.47  
Year to date precipitation 2.52 2.73  
Sea Level Pressure  
Sea Level Pressure 29.66 in    
Wind  
Wind Speed 11 mph (NE)    
Max Wind Speed 35 mph    
Max Gust Speed 43 mph    
Visibility 7 miles    
Events Fog , Rain , Thunderstorm    
T = Trace of Precipitation, MM = Missing Value Source: NWS Daily Summary

Daily Weather History Graph

Daily Weather History Graph

Search for Another Location

Airport:

Trip Planner

Search our weather history database for the weather conditions in past years. The results will help you decide how hot, cold, wet, or windy it might be!

Date:

Astronomy

Apr. 08, 2013 Rise Set
Actual Time 7:06 AM CDT 8:09 PM CDT
Civil Twilight 6:38 AM CDT 8:37 PM CDT
Nautical Twilight 6:04 AM CDT 9:11 PM CDT
Astronomical Twilight 5:29 AM CDT 9:46 PM CDT
Moon 5:58 AM CDT (4/8) 6:44 PM CDT (4/8)
Length of Visible Light 13h 59m
Length of Day
13h 02m
Waning Crescent, 3% of the Moon is Illuminated
Apr 8
Waning Crescent
Apr 10
New
Apr 18
First Quarter
Apr 25
Full
May 2
Last Quarter

Hourly Weather History & Observations

Time (CDT) Temp. Windchill Dew Point Humidity Pressure Visibility Wind Dir Wind Speed Gust Speed Precip Events Conditions
12:53 AM 42.1 °F 40.2 °F 39.0 °F 89% 29.64 in 10.0 mi SSW 3.5 mph - N/A   Clear
1:53 AM 44.1 °F 42.5 °F 39.9 °F 85% 29.66 in 10.0 mi SSE 3.5 mph - N/A   Scattered Clouds
2:53 AM 39.0 °F 36.8 °F 37.0 °F 93% 29.66 in 10.0 mi SSW 3.5 mph - N/A   Clear
3:53 AM 43.0 °F 41.3 °F 39.9 °F 89% 29.64 in 10.0 mi SSE 3.5 mph - N/A   Clear
4:53 AM 39.9 °F - 37.9 °F 93% 29.65 in 10.0 mi Calm Calm - N/A   Clear
5:22 AM 42.8 °F 41.1 °F 39.2 °F 87% 29.63 in 10.0 mi South 3.5 mph - N/A   Scattered Clouds
5:31 AM 44.6 °F 42.2 °F 41.0 °F 87% 29.62 in 10.0 mi South 4.6 mph - N/A   Mostly Cloudy
5:53 AM 46.9 °F - 45.0 °F 93% 29.62 in 9.0 mi SSW 11.5 mph - N/A   Overcast
6:53 AM 46.0 °F 43.9 °F 45.0 °F 96% 29.61 in 2.5 mi SE 4.6 mph - N/A   Overcast
7:05 AM 46.4 °F 44.3 °F 46.4 °F 100% 29.60 in 1.8 mi SSE 4.6 mph - N/A   Overcast
7:12 AM 46.4 °F 44.3 °F 46.4 °F 100% 29.60 in 0.8 mi South 4.6 mph - N/A   Overcast
7:53 AM 46.0 °F 43.9 °F 45.0 °F 96% 29.64 in 0.5 mi South 4.6 mph - N/A Fog Fog
8:26 AM 46.4 °F 45.2 °F 46.4 °F 100% 29.63 in 1.2 mi South 3.5 mph - N/A   Overcast
8:48 AM 46.4 °F - 46.4 °F 100% 29.63 in 2.5 mi Calm Calm - N/A   Overcast
8:53 AM 46.9 °F - 46.9 °F 100% 29.65 in 2.5 mi Calm Calm - N/A   Overcast
9:00 AM 46.4 °F - 46.4 °F 100% 29.64 in 4.0 mi Calm Calm - N/A   Mostly Cloudy
9:43 AM 51.8 °F - 48.2 °F 88% 29.64 in 10.0 mi Variable 3.5 mph 29.9 mph N/A   Scattered Clouds
9:53 AM 52.0 °F - 48.0 °F 86% 29.65 in 10.0 mi SSW 3.5 mph - N/A   Partly Cloudy
10:53 AM 61.0 °F - 46.0 °F 58% 29.66 in 10.0 mi Variable 3.5 mph - N/A   Clear
11:53 AM 69.1 °F - 41.0 °F 36% 29.65 in 10.0 mi West 10.4 mph - N/A   Clear
12:53 PM 71.1 °F - 34.0 °F 26% 29.64 in 10.0 mi NW 5.8 mph - N/A   Clear
1:53 PM 73.0 °F - 35.1 °F 25% 29.62 in 10.0 mi Variable 4.6 mph - N/A   Clear
2:53 PM 73.0 °F - 34.0 °F 24% 29.63 in 10.0 mi Calm Calm - N/A   Clear
3:53 PM 75.0 °F - 36.0 °F 24% 29.60 in 10.0 mi NNE 9.2 mph - N/A   Clear
4:53 PM 68.0 °F - 46.0 °F 45% 29.62 in 10.0 mi NNE 21.9 mph 29.9 mph N/A   Mostly Cloudy
5:53 PM 63.0 °F - 46.0 °F 54% 29.63 in 10.0 mi NNE 20.7 mph 32.2 mph N/A   Partly Cloudy
6:53 PM 61.0 °F - 46.0 °F 58% 29.67 in 10.0 mi NNE 11.5 mph 24.2 mph N/A   Partly Cloudy
7:53 PM 55.0 °F - 48.0 °F 77% 29.70 in 7.0 mi NNE 17.3 mph 25.3 mph N/A   Mostly Cloudy
8:04 PM 53.6 °F - 46.4 °F 77% 29.69 in 6.0 mi NNE 20.7 mph 29.9 mph N/A   Haze
8:53 PM 52.0 °F - 46.9 °F 83% 29.72 in 7.0 mi NNE 25.3 mph 32.2 mph N/A   Overcast
9:07 PM 50.0 °F - 44.6 °F 82% 29.72 in 8.0 mi North 18.4 mph 27.6 mph 0.00 in   Overcast
9:16 PM 48.2 °F - 44.6 °F 87% 29.71 in 7.0 mi North 24.2 mph 33.4 mph 0.00 in Rain Light Rain
9:53 PM 45.0 °F 35.8 °F 43.0 °F 93% 29.70 in 5.0 mi NNE 26.5 mph 33.4 mph 0.00 in Rain Light Rain
10:46 PM 44.6 °F 35.1 °F 42.8 °F 93% 29.68 in 2.5 mi NNE 27.6 mph 38.0 mph 0.00 in   Overcast
10:53 PM 43.0 °F 32.9 °F 42.1 °F 97% 29.70 in 2.0 mi NNE 27.6 mph 38.0 mph 0.00 in   Overcast
11:05 PM 42.8 °F 33.5 °F 42.8 °F 100% 29.72 in 1.8 mi NNE 23.0 mph 35.7 mph 0.00 in Rain Light Rain
11:27 PM 42.8 °F 33.5 °F 42.8 °F 100% 29.74 in 1.5 mi NNE 23.0 mph 32.2 mph 0.03 in Rain , Thunderstorm Rain
11:42 PM 42.8 °F 33.5 °F 41.0 °F 93% 29.73 in 2.0 mi North 23.0 mph 35.7 mph 0.08 in Rain Heavy Rain
11:47 PM 42.8 °F 34.0 °F 41.0 °F 93% 29.72 in 3.0 mi NNE 20.7 mph 31.1 mph 0.08 in Rain , Thunderstorm Rain
11:53 PM 42.1 °F 33.3 °F 39.9 °F 92% 29.73 in 5.0 mi NNE 19.6 mph 32.2 mph 0.09 in Rain , Thunderstorm Light Rain